YAOGAN-30 B

导读 | 星芒AI

YAOGAN-30 B 是中国研制的一颗遥感卫星,主要用于科学实验、国土资源普查、农作物估产及防灾减灾等领域。该卫星属于遥感三十号系列,具备高分辨率对地观测能力,能够提供高质量的遥感数据,服务于国家经济建设和国防安全。卫星采用先进的遥感技术和稳定的运行平台,具有较高的观测精度和数据传输效率。其发射和运行体现了中国在遥感卫星技术方面的持续发展和应用能力的提升。

基本信息
目录编号:
42946
目录名称:
YAOGAN-30 B
国际标识:
2017-058B
轨道中心:
EARTH
卫星名称:
YAOGAN-30 B
卫星全名:
--
卫星状态:
在轨 (已飞行2999 天)
发射日期:
2017-09-29 UTC
国别 :
中国 (CN)
星等 :
--
轨道信息
数据来源 国际轨道数据
星历时间: 2025-12-15T01:02:12+0800
1天前
查看轨道信息
半长轴: 6940.336km
偏心率: 0.0002209
轨道倾角: 34.998°
近地点辐角 155.425°
升交点赤经 73.731°
平近点角 204.656°
近地点: 560.667km
远地点: 563.735km
周期: 95.903分钟
每日圈数: 15.015233
详细信息
使用方式:
暂无
2D轨道图
3D轨道图
轨道高度分析图
轨道倾角分析图
轨道综合分析图
查看轨道综合分析图